IGO104 VAPO-VIDP

Flight info

Callsign IGO104
Flight time N/A
Altitude 37000
Route DOGAP2A DOGAP W28 BBB Q1 UKASO UKASO7A
Aircraft A20N/M-SDGHIRWXY/LB1D1

Departure

Time N/A
Airport Pune International Airport (VAPO)

Arrival

Time 2026-04-28 09:48
Airport Indira Gandhi International Airport (VIDP)
Time Latitude Longitude Altitude Speed Heading
2026-04-28 09:04 25.93856 74.86243 36754 ft 435 kts 14°
2026-04-28 09:05 25.99542 74.88615 36753 ft 436 kts 14°
2026-04-28 09:05 26.05232 74.90992 36747 ft 436 kts 14°
2026-04-28 09:06 26.10891 74.93356 36748 ft 435 kts 14°
2026-04-28 09:06 26.16586 74.95733 36742 ft 435 kts 14°
2026-04-28 09:07 26.22247 74.98094 36557 ft 436 kts 14°
2026-04-28 09:07 26.25115 74.99290 36292 ft 433 kts 14°
2026-04-28 09:07 26.27908 75.00458 36037 ft 431 kts 14°
2026-04-28 09:07 26.30741 75.01642 35784 ft 430 kts 14°
2026-04-28 09:08 26.33502 75.02799 35533 ft 428 kts 14°
2026-04-28 09:08 26.36312 75.03975 35277 ft 427 kts 14°
2026-04-28 09:08 26.39105 75.05145 35025 ft 428 kts 15°
2026-04-28 09:08 26.41892 75.06311 34776 ft 429 kts 15°
2026-04-28 09:09 26.44692 75.07484 34527 ft 430 kts 15°
2026-04-28 09:09 26.47475 75.08648 34277 ft 432 kts 15°
2026-04-28 09:09 26.50312 75.09835 34025 ft 433 kts 15°
2026-04-28 09:09 26.53144 75.11019 33774 ft 435 kts 15°
2026-04-28 09:10 26.55972 75.12202 33526 ft 437 kts 15°
2026-04-28 09:10 26.58835 75.13402 33274 ft 438 kts 15°
2026-04-28 09:10 26.61700 75.14603 33020 ft 440 kts 15°
2026-04-28 09:10 26.64552 75.15801 32784 ft 441 kts 15°
2026-04-28 09:11 26.67413 75.17003 32557 ft 442 kts 15°
2026-04-28 09:11 26.70326 75.18227 32328 ft 443 kts 16°
2026-04-28 09:11 26.73185 75.19428 32105 ft 443 kts 15°
2026-04-28 09:11 26.76071 75.20638 31876 ft 443 kts 16°
2026-04-28 09:12 26.78995 75.21866 31644 ft 444 kts 16°
2026-04-28 09:12 26.81861 75.23072 31418 ft 445 kts 16°
2026-04-28 09:12 26.84780 75.24303 31186 ft 445 kts 16°
2026-04-28 09:12 26.87679 75.25523 30955 ft 446 kts 16°
2026-04-28 09:13 26.90563 75.26738 30725 ft 447 kts 16°
2026-04-28 09:13 26.93482 75.27970 30493 ft 447 kts 16°
2026-04-28 09:13 26.96401 75.29202 30259 ft 448 kts 16°
2026-04-28 09:13 26.99308 75.30429 30026 ft 447 kts 17°
2026-04-28 09:14 27.02233 75.31665 29791 ft 446 kts 16°
2026-04-28 09:14 27.05098 75.32878 29558 ft 443 kts 16°
2026-04-28 09:14 27.07975 75.34094 29325 ft 442 kts 16°
2026-04-28 09:14 27.10859 75.35313 29086 ft 440 kts 16°
2026-04-28 09:15 27.13735 75.36525 28843 ft 438 kts 16°
2026-04-28 09:15 27.16553 75.37790 28598 ft 439 kts 20°
2026-04-28 09:15 27.19285 75.39301 28351 ft 439 kts 25°
2026-04-28 09:15 27.21934 75.41094 28102 ft 440 kts 30°
2026-04-28 09:16 27.24391 75.43092 27860 ft 439 kts 35°
2026-04-28 09:16 27.26714 75.45342 27613 ft 439 kts 40°
2026-04-28 09:16 27.28899 75.47716 27370 ft 438 kts 41°
2026-04-28 09:16 27.31052 75.50108 27127 ft 436 kts 41°
2026-04-28 09:17 27.33218 75.52523 26880 ft 434 kts 41°
2026-04-28 09:17 27.35341 75.54887 26636 ft 432 kts 41°
2026-04-28 09:17 27.37473 75.57251 26391 ft 430 kts 41°
2026-04-28 09:17 27.39601 75.59611 26145 ft 428 kts 41°
2026-04-28 09:18 27.41704 75.61938 25902 ft 426 kts 41°
2026-04-28 09:18 27.43828 75.64286 25654 ft 424 kts 41°
2026-04-28 09:18 27.45915 75.66603 25409 ft 422 kts 41°
2026-04-28 09:18 27.47996 75.68925 25165 ft 420 kts 41°
2026-04-28 09:19 27.50078 75.71244 24920 ft 420 kts 41°
2026-04-28 09:19 27.52157 75.73554 24674 ft 417 kts 41°
2026-04-28 09:19 27.54199 75.75824 24431 ft 416 kts 41°
2026-04-28 09:19 27.56268 75.78121 24185 ft 414 kts 41°
2026-04-28 09:20 27.58295 75.80373 23923 ft 412 kts 41°
2026-04-28 09:20 27.60346 75.82650 23657 ft 410 kts 41°
2026-04-28 09:20 27.62368 75.84899 23395 ft 408 kts 41°
2026-04-28 09:20 27.64418 75.87072 23133 ft 406 kts 38°
2026-04-28 09:21 27.66561 75.89168 22869 ft 403 kts 37°
2026-04-28 09:21 27.68674 75.91203 22608 ft 401 kts 37°
2026-04-28 09:21 27.70794 75.93243 22343 ft 399 kts 37°
2026-04-28 09:21 27.72880 75.95252 22081 ft 398 kts 37°
2026-04-28 09:22 27.74983 75.97278 21816 ft 397 kts 37°
2026-04-28 09:22 27.77077 75.99298 21553 ft 396 kts 37°
2026-04-28 09:22 27.79178 76.01331 21289 ft 395 kts 37°
2026-04-28 09:22 27.81256 76.03339 21027 ft 393 kts 37°
2026-04-28 09:23 27.83339 76.05353 20767 ft 392 kts 37°
2026-04-28 09:23 27.85393 76.07344 20508 ft 390 kts 37°
2026-04-28 09:23 27.87465 76.09351 20248 ft 389 kts 37°
2026-04-28 09:23 27.89508 76.11331 19990 ft 387 kts 37°
2026-04-28 09:24 27.91530 76.13293 19691 ft 382 kts 37°
2026-04-28 09:24 27.93534 76.15241 19347 ft 374 kts 37°
2026-04-28 09:24 27.95471 76.17123 18991 ft 363 kts 37°
2026-04-28 09:24 27.97350 76.18951 18731 ft 348 kts 37°
2026-04-28 09:25 27.99154 76.20709 18471 ft 334 kts 37°
2026-04-28 09:25 28.00878 76.22385 18212 ft 322 kts 37°
2026-04-28 09:25 28.02560 76.24020 17964 ft 314 kts 37°
2026-04-28 09:25 28.04197 76.25612 17695 ft 308 kts 37°
2026-04-28 09:26 28.05806 76.27177 17421 ft 303 kts 37°
2026-04-28 09:26 28.07383 76.28713 17183 ft 297 kts 37°
2026-04-28 09:26 28.08957 76.30243 16939 ft 297 kts 37°
2026-04-28 09:26 28.10519 76.31761 16684 ft 295 kts 37°
2026-04-28 09:27 28.13619 76.34760 16191 ft 293 kts 37°
2026-04-28 09:27 28.15173 76.36271 15940 ft 292 kts 37°
2026-04-28 09:27 28.16715 76.37775 15691 ft 291 kts 37°
2026-04-28 09:28 28.18248 76.39271 15445 ft 290 kts 37°
2026-04-28 09:28 28.19772 76.40762 15200 ft 289 kts 37°
2026-04-28 09:28 28.21287 76.42242 14953 ft 288 kts 38°
2026-04-28 09:28 28.22716 76.43824 14708 ft 288 kts 45°
2026-04-28 09:29 28.23956 76.45608 14467 ft 288 kts 54°
2026-04-28 09:29 28.25011 76.47540 14223 ft 288 kts 57°
2026-04-28 09:29 28.26016 76.49511 13980 ft 287 kts 58°
2026-04-28 09:29 28.26991 76.51438 13739 ft 285 kts 58°
2026-04-28 09:30 28.27980 76.53382 13499 ft 284 kts 57°
2026-04-28 09:30 28.28972 76.55325 13260 ft 283 kts 57°
2026-04-28 09:30 28.29962 76.57252 13024 ft 282 kts 57°
2026-04-28 09:30 28.30942 76.59160 12779 ft 281 kts 57°
2026-04-28 09:31 28.31927 76.61073 12527 ft 280 kts 57°
2026-04-28 09:31 28.32904 76.62973 12288 ft 279 kts 57°
2026-04-28 09:31 28.33879 76.64870 12051 ft 279 kts 57°
2026-04-28 09:31 28.34833 76.66806 11812 ft 279 kts 61°
2026-04-28 09:32 28.35661 76.68768 11569 ft 279 kts 63°
2026-04-28 09:32 28.36481 76.70785 11326 ft 278 kts 64°
2026-04-28 09:32 28.37278 76.72757 11095 ft 278 kts 64°
2026-04-28 09:32 28.38088 76.74757 10858 ft 276 kts 64°
2026-04-28 09:33 28.38886 76.76723 10674 ft 274 kts 63°
2026-04-28 09:33 28.39683 76.78681 10647 ft 275 kts 64°
2026-04-28 09:33 28.40488 76.80659 10641 ft 275 kts 64°
2026-04-28 09:33 28.41291 76.82632 10639 ft 271 kts 64°
2026-04-28 09:34 28.42070 76.84551 10648 ft 266 kts 64°
2026-04-28 09:34 28.42845 76.86455 10654 ft 267 kts 63°
2026-04-28 09:34 28.43623 76.88370 10637 ft 267 kts 63°
2026-04-28 09:34 28.44406 76.90294 10646 ft 268 kts 63°
2026-04-28 09:35 28.45181 76.92203 10652 ft 268 kts 63°
2026-04-28 09:35 28.45968 76.94141 10664 ft 269 kts 64°
2026-04-28 09:35 28.46699 76.96120 10669 ft 270 kts 76°
2026-04-28 09:35 28.46768 76.98216 10573 ft 264 kts 102°
2026-04-28 09:36 28.46347 77.00223 10245 ft 264 kts 106°
2026-04-28 09:36 28.45854 77.02251 9891 ft 266 kts 106°
2026-04-28 09:36 28.45372 77.04288 9568 ft 266 kts 105°
2026-04-28 09:36 28.44915 77.06311 9242 ft 264 kts 105°
2026-04-28 09:37 28.44475 77.08328 8918 ft 263 kts 104°
2026-04-28 09:37 28.44044 77.10321 8630 ft 261 kts 104°
2026-04-28 09:37 28.43613 77.12326 8328 ft 260 kts 104°
2026-04-28 09:37 28.43190 77.14289 8039 ft 258 kts 104°
2026-04-28 09:38 28.42763 77.16274 7646 ft 261 kts 104°
2026-04-28 09:38 28.42334 77.18261 7232 ft 258 kts 104°
2026-04-28 09:38 28.41912 77.20221 6836 ft 253 kts 104°
2026-04-28 09:38 28.41498 77.22137 6411 ft 248 kts 105°
2026-04-28 09:39 28.41091 77.24015 6012 ft 243 kts 104°
2026-04-28 09:39 28.40694 77.25856 5628 ft 239 kts 103°
2026-04-28 09:39 28.40677 77.27671 5400 ft 223 kts 70°
2026-04-28 09:39 28.41540 77.29036 5038 ft 209 kts 32°
2026-04-28 09:40 28.42806 77.29711 4690 ft 200 kts 16°
2026-04-28 09:40 28.44102 77.30240 4347 ft 196 kts 16°
2026-04-28 09:40 28.45368 77.30763 4075 ft 190 kts 17°
2026-04-28 09:40 28.46590 77.31293 3788 ft 186 kts 17°
2026-04-28 09:41 28.47789 77.31828 3509 ft 182 kts 18°
2026-04-28 09:41 28.48957 77.32359 3239 ft 179 kts 18°
2026-04-28 09:41 28.50103 77.32883 2999 ft 173 kts 18°
2026-04-28 09:41 28.51196 77.33384 2755 ft 168 kts 18°
2026-04-28 09:42 28.52269 77.33874 2578 ft 165 kts 19°
2026-04-28 09:42 28.53339 77.34366 2543 ft 166 kts 19°
2026-04-28 09:42 28.54463 77.34631 2528 ft 162 kts 352°
2026-04-28 09:42 28.55505 77.34239 2533 ft 158 kts 323°
2026-04-28 09:43 28.56165 77.33293 2533 ft 154 kts 290°
2026-04-28 09:43 28.56411 77.32105 2563 ft 154 kts 277°
2026-04-28 09:43 28.56515 77.30899 2555 ft 155 kts 274°
2026-04-28 09:43 28.56583 77.29591 2578 ft 171 kts 272°
2026-04-28 09:44 28.56631 77.28216 2560 ft 175 kts 271°
2026-04-28 09:44 28.56666 77.26827 2554 ft 175 kts 271°
2026-04-28 09:44 28.56695 77.25459 2549 ft 173 kts 271°
2026-04-28 09:44 28.56720 77.24164 2503 ft 150 kts 271°
2026-04-28 09:45 28.56744 77.22999 2519 ft 146 kts 271°
2026-04-28 09:45 28.56767 77.21847 2406 ft 146 kts 271°
2026-04-28 09:45 28.56791 77.20691 2235 ft 147 kts 271°
2026-04-28 09:45 28.56817 77.19518 2055 ft 148 kts 271°
2026-04-28 09:46 28.56842 77.18340 1872 ft 149 kts 271°
2026-04-28 09:46 28.56868 77.17162 1689 ft 150 kts 270°
2026-04-28 09:46 28.56895 77.15955 1504 ft 151 kts 271°
2026-04-28 09:46 28.56924 77.14764 1323 ft 151 kts 271°
2026-04-28 09:47 28.56951 77.13556 1124 ft 152 kts 270°
2026-04-28 09:47 28.56974 77.12349 948 ft 153 kts 270°
2026-04-28 09:47 28.57004 77.11139 789 ft 152 kts 270°
2026-04-28 09:47 28.57027 77.10025 779 ft 120 kts 272°
2026-04-28 09:48 28.57043 77.09422 779 ft 34 kts 271°
2026-04-28 09:48 28.57045 77.09308 779 ft 12 kts 271°
2026-04-28 09:48 28.57047 77.09203 779 ft 14 kts 271°
2026-04-28 09:48 28.57051 77.09060 779 ft 18 kts 271°
2026-04-28 09:49 28.57034 77.08965 778 ft 8 kts 211°
2026-04-28 09:49 28.56978 77.08969 779 ft 8 kts 166°
2026-04-28 09:49 28.56917 77.08991 778 ft 9 kts 144°
2026-04-28 09:49 28.56894 77.09062 779 ft 10 kts 91°
2026-04-28 09:50 28.56892 77.09148 779 ft 11 kts 92°
2026-04-28 09:50 28.56890 77.09242 778 ft 13 kts 91°
2026-04-28 09:50 28.56886 77.09380 779 ft 20 kts 92°
2026-04-28 09:50 28.56882 77.09566 779 ft 24 kts 91°
2026-04-28 09:51 28.56878 77.09757 779 ft 23 kts 91°
2026-04-28 09:51 28.56873 77.09939 779 ft 22 kts 91°
2026-04-28 09:51 28.56869 77.10122 779 ft 23 kts 91°
2026-04-28 09:51 28.56865 77.10311 779 ft 24 kts 91°
2026-04-28 09:52 28.56861 77.10506 779 ft 24 kts 91°
2026-04-28 09:52 28.56856 77.10700 779 ft 23 kts 91°
2026-04-28 09:52 28.56852 77.10883 779 ft 22 kts 91°
2026-04-28 09:52 28.56849 77.11014 779 ft 10 kts 91°
2026-04-28 09:53 28.56822 77.11073 779 ft 8 kts 162°
2026-04-28 09:53 28.56757 77.11059 779 ft 10 kts 195°
2026-04-28 09:53 28.56671 77.11034 779 ft 15 kts 194°
2026-04-28 09:53 28.56592 77.11012 779 ft 5 kts 180°
2026-04-28 09:54 28.56567 77.11048 779 ft 6 kts 107°
2026-04-28 09:54 28.56550 77.11121 779 ft 9 kts 105°
2026-04-28 09:54 28.56560 77.11180 779 ft 8 kts 31°
2026-04-28 09:54 28.56623 77.11194 779 ft 9 kts 14°
2026-04-28 09:55 28.56693 77.11214 779 ft 10 kts 14°
2026-04-28 09:55 28.56766 77.11235 779 ft 11 kts 14°
2026-04-28 09:55 28.56834 77.11275 779 ft 11 kts 60°
2026-04-28 09:55 28.56841 77.11362 779 ft 11 kts 94°
2026-04-28 09:56 28.56810 77.11405 779 ft 7 kts 176°
2026-04-28 09:56 28.56757 77.11387 779 ft 6 kts 197°
2026-04-28 09:56 28.56716 77.11389 779 ft 5 kts 144°
2026-04-28 09:56 28.56683 77.11414 779 ft 5 kts 152°
2026-04-28 09:57 28.56660 77.11447 779 ft 5 kts 109°
2026-04-28 09:57 28.56634 77.11467 779 ft 4 kts 187°
2026-04-28 09:57 28.56611 77.11455 779 ft 3 kts 199°
2026-04-28 09:57 28.56599 77.11451 779 ft 0 kts 197°